Flag for New Zealand Weather past 2 weeks in Wellington, New Zealand

Now
63 °F

Mild.


Feels Like: 63 °F
Forecast: 60 / 71 °F
Wind: 2 mph from Northeast

Location: Wellington Airport

Current Time: Jan 29, 2015 at 6:08:24 AM

Latest Report: Jan 29, 2015 at 5:30 AM


Visibility: N/A

Pressure: 29.95 "Hg

Humidity: 83%

Dew point: 57 °F

Location of WellingtonLocation

Historic Weather in Wellington — Graph

°F

Wellington temperature yesterday

Maximum temperature yesterday: 81 °F (at 5:30 PM)
Minimum temperature yesterday: 63 °F (at 5:30 AM)
Average temperature yesterday: 70 °F

Past Weeks' High & Low Weather Summary

 TemperatureHumidityPressure
High81 °F (Jan 26, 3:00 PM)94% (Jan 14, 6:30 AM)30.30 "Hg (Jan 14, 6:30 AM)
Low52 °F (Jan 23, 6:30 AM)33% (Jan 20, 2:30 PM)29.50 "Hg (Jan 18, 6:00 PM)
Average66 °F70%29.92 "Hg
* Reported Jan 14 5:00 AM — Jan 29 5:00 AM, Wellington, Weather by CustomWeather, © 2014

Note: Actual official high and low records may vary slightly from our data, if they occured in-between our weather recording intervals... More about our weather records

Advertising

Wellington weather history for previous 24 hours

 ConditionsComfort  
Time TempWeatherWind HumidityBarometerVisibility
5:00 AM
Jan 29
63 °FMild.2 mph83%29.92 "HgN/A
4:30 AM63 °FMild.2 mph83%29.92 "HgN/A
4:00 AM64 °FMild.1 mph83%29.92 "HgN/A
3:30 AM66 °FMild.3 mph78%29.92 "HgN/A
3:00 AM66 °FMild.3 mph78%29.92 "HgN/A
2:30 AM64 °FMild.5 mph83%29.92 "HgN/A
2:00 AM68 °FMild.2 mph69%29.92 "HgN/A
1:30 AM68 °FMild.3 mph73%29.92 "HgN/A
1:00 AM68 °FMild.6 mph73%29.92 "HgN/A
12:30 AM68 °FMild.10 mph73%29.92 "HgN/A
12:00 AM70 °FMild.7 mph69%29.92 "HgN/A
11:30 PM
Jan 28
70 °FMild.5 mph69%29.92 "HgN/A
11:00 PM70 °FMild.2 mph69%29.92 "HgN/A
10:30 PM72 °FMild.3 mph65%29.92 "HgN/A
10:00 PM72 °FMild.5 mph65%29.92 "HgN/A
9:30 PM73 °FMild.8 mph61%29.92 "HgN/A
9:00 PM73 °FMild.9 mph61%29.89 "HgN/A
8:30 PM75 °FMild.10 mph57%29.89 "HgN/A
8:00 PM75 °FMild.12 mph57%29.89 "HgN/A
7:30 PM77 °FWarm.10 mph54%29.89 "HgN/A
7:00 PM79 °FWarm.12 mph51%29.89 "HgN/A
6:30 PM79 °FWarm.13 mph51%29.89 "HgN/A
6:00 PM81 °FWarm.14 mph48%29.86 "HgN/A
5:30 PM81 °FWarm.9 mph48%29.89 "HgN/A
5:00 PM77 °FWarm.7 mph54%29.86 "HgN/A
4:30 PM75 °FPassing clouds.7 mph57%29.89 "HgN/A
4:00 PM72 °FMild.12 mph69%29.89 "HgN/A
3:30 PM72 °FScattered clouds.14 mph69%29.89 "HgN/A
3:00 PM70 °FPartly sunny.14 mph73%29.92 "HgN/A
2:30 PM72 °FPassing clouds.16 mph69%29.92 "HgN/A
2:00 PM70 °FPassing clouds.15 mph73%29.92 "HgN/A
1:30 PM68 °FScattered clouds.14 mph78%29.92 "HgN/A
1:00 PM70 °FMild.12 mph73%29.92 "HgN/A
12:30 PM72 °FMild.12 mph65%29.92 "HgN/A
12:00 PM72 °FPassing clouds.9 mph65%29.92 "HgN/A
11:30 AM70 °FMild.8 mph69%29.92 "HgN/A
11:00 AM70 °FMild.7 mph69%29.92 "HgN/A
10:30 AM68 °FMild.8 mph73%29.92 "HgN/A
10:00 AM68 °FMild.7 mph73%29.92 "HgN/A
9:30 AM68 °FMild.7 mph73%29.92 "HgN/A
9:00 AM66 °FMild.7 mph78%29.92 "HgN/A
8:30 AM66 °FMild.6 mph78%29.92 "HgN/A
8:00 AM66 °FMild.2 mph78%29.92 "HgN/A
7:30 AM64 °FMild.1 mph83%29.92 "HgN/A
7:00 AM63 °FMild.1 mph83%29.92 "HgN/A
6:30 AM63 °FMild.1 mph83%29.92 "HgN/A
6:00 AM63 °FMild.2 mph83%29.89 "HgN/A
Weather by CustomWeather, © 2014

See weather overviewHow to use our weather pages